Location: Unspecified
(0.0000°N, 0.0000°E)
Time: 05:46:31
(UTC+00:00)

CZ-3 Stage 3 - Pass Details

Date: 28 May 2019
Orbit: 501 x 34691 km, 30.5° (Epoch: 18 June)

Event Time Altitude Azimuth Distance (km) Brightness Sun altitude
Rises 19:57:17 0° 263° (W) 2,916 6.4 -27.7°
Reaches altitude 10° 20:00:00 10° 286° (WNW) 1,706 5.3 -28.3°
Maximum altitude 20:02:15 18° 335° (NNW) 1,304 4.2 -28.8°
Enters shadow 20:03:05 17° 355° (N) 1,430 4.2 -29.0°
